Regional Weather Roundup
Issued by NWS Glasgow, MT

Home | Current Version | Previous Version | Text Only | Print | Product List | Glossary On
Versions: 1 2 3 4 5 6 7 8 9 10 11 12 13 14 15 16 17 18 19 20 21 22 23 24 25 26 27 28 29 30 31 32 33 34 35 36 37 38 39 40 41 42 43 44 45 46 47 48 49 50
000
ASUS45 KGGW 311915
RWRGGW
HOURLY WEATHER ROUNDUP FOR NORTHEAST MONTANA
NATIONAL WEATHER SERVICE GLASGOW MONTANA
1200 PM MST SAT JAN 31 2015

NOTE: "FAIR" INDICATES FEW OR NO CLOUDS BELOW 12,000 FEET WITH NO
SIGNIFICANT WEATHER AND/OR OBSTRUCTIONS TO VISISBILITY.

NORTHEAST MONTANA


CITY           SKY/WX    TMP DP  RH WIND       PRES   REMARKS
GLASGOW        HVY SNOW  13   8  81 NE23      30.23R VSB 1/4 WCI  -6
PLENTYWOOD       N/A      8   4  83 E22G30      N/A  WCI -12
WOLF POINT     SNOW      14   9  80 E26G32    30.26R VSB 1/2 WCI  -6
JORDAN           N/A     24  21  88 NE13      30.11S
WINNETT          N/A     26  24  92 N10G20      N/A
SIDNEY         CLOUDY    14   9  79 NE16G25   30.26R VSB 3/4 WCI  -2
GLENDIVE       CLOUDY    21  18  86 E16       30.12F
MALTA            N/A     16  12  84 NE15G23     N/A
SCOBEY           N/A      9  -1  64 NE18G24   30.25R WCI  -9

FORT PECK REPORTS


CITY           SKY/WX    TMP DP  RH WIND       PRES   REMARKS
FORT PECK        N/A     14  12  92 NE21G29     N/A  WCI  -4
THE PINES        N/A     15  13  91 NE20G35     N/A  WCI  -2

SOUTHEAST MONTANA


CITY           SKY/WX    TMP DP  RH WIND       PRES   REMARKS
BILLINGS       CLOUDY    30  24  78 NE15G24   30.04R
MILES CITY     CLOUDY    27  24  89 NE17      30.02R FOG
BAKER          CLOUDY    21  20  96 E25G32    30.03F FOG
LIVINGSTON     CLOUDY    39  21  48 NW16G24   30.00R

CENTRAL MONTANA


CITY           SKY/WX    TMP DP  RH WIND       PRES   REMARKS
HAVRE          LGT SNOW  15  10  80 NE17      30.28R WCI  -1
LEWISTOWN      SNOW      23  19  85 NW15G23   30.12R VSB 1/2
GREAT FALLS    LGT SNOW  16  10  79 NW16      30.26S
CUT BANK       LGT SNOW  11   5  77 N22       30.29R WCI  -8
HELENA         LGT SNOW  24  15  68 N17G25    30.19R
BUTTE          SUNNY     34  18  52 CALM      30.04F
BOZEMAN        CLOUDY    32  24  72 W5        30.05R

WESTERN MONTANA


CITY           SKY/WX    TMP DP  RH WIND       PRES   REMARKS
MISSOULA       CLOUDY    31  24  75 CALM      30.16S
KALISPELL      NOT AVBL

NORTH DAKOTA


CITY           SKY/WX    TMP DP  RH WIND       PRES   REMARKS
WILLISTON      LGT SNOW  10   4  76 NE13      30.31S VSB 3/4 WCI  -5
DICKINSON      LGT SNOW  13   9  84 E20       30.14F FOG     WCI  -5
MINOT          LGT SNOW   3  -4  72 NE15      30.37F VSB 3/4 WCI -16
BISMARCK       MOSUNNY   15   4  61 E15G24    30.28F WCI   0

SOUTHERN SASKATCHEWAN


CITY           SKY/WX    TMP DP  RH WIND       PRES   REMARKS
REGINA         PTSUNNY    0 -11  60 NE14      30.47R WCI -19
ESTEVAN        CLOUDY     3  -6  66 NE16G23   30.40  WCI -16
SWIFT CURRENT  PTSUNNY   -2  -6  84 NE14      30.38F WCI -21




USA.gov is the U.S. government's official web portal to all federal, state and local government web resources and services.